This is the latest recevied weather packets stored in our database for station/object EA1GLE. If no packets are shown the sender has not sent any weather packets the latest 10 day(s).
| Time | Temp. | Humidity | Pressure | Rain* | Wind** | Luminosity | Snow |
|---|---|---|---|---|---|---|---|
| 1777538839 | 12.78° C | 85% | 1018.4 hPa | 0 mm | - | 235 W/m² | - |
| 1777536004 | 11.11° C | 99% | 1018.2 hPa | 0 mm | - | 105 W/m² | - |
| 1777532179 | 11.11° C | 99% | 1017.7 hPa | 0 mm | - | 71 W/m² | - |
| 1777530423 | 9.44° C | 99% | 1017.4 hPa | 0 mm | - | 53 W/m² | - |
| 1777529343 | 8.33° C | 99% | 1017.3 hPa | 0 mm | - | 35 W/m² | - |
| 1777528804 | 8.89° C | 99% | 1017.2 hPa | 0 mm | - | 26 W/m² | - |
| 1777524304 | 8.33° C | 99% | 1017 hPa | 0 mm | - | 0 W/m² | - |
| 1777519757 | 8.89° C | 99% | 1016.4 hPa | 0 mm | - | 0 W/m² | - |
| 1777518678 | 8.89° C | 99% | 1016.1 hPa | 0 mm | - | 0 W/m² | - |
| 1777518004 | 9.44° C | 99% | 1016.2 hPa | 0 mm | - | 0 W/m² | - |
| 1777515483 | 10° C | 99% | 1015.9 hPa | 0 mm | - | 0 W/m² | - |
| 1777510804 | 10.56° C | 98% | 1015.8 hPa | 0 mm | - | 0 W/m² | - |
| 1777507743 | 11.11° C | 97% | 1015.8 hPa | 0.25 mm | - | 0 W/m² | - |
| 1777503243 | 11.11° C | 98% | 1014.4 hPa | 0 mm | - | 0 W/m² | - |
| 1777499104 | 11.11° C | 97% | 1014.6 hPa | 0 mm | - | 0 W/m² | - |
| 1777498024 | 11.11° C | 97% | 1014.9 hPa | 0 mm | - | 0 W/m² | - |
| 1777496403 | 11.67° C | 96% | 1014.8 hPa | 0 mm | - | 0 W/m² | - |
| 1777493343 | 11.67° C | 93% | 1014.2 hPa | 0.25 mm | - | 0 W/m² | - |
| 1777491364 | 12.22° C | 90% | 1013.6 hPa | 0.25 mm | - | 0 W/m² | - |
| 1777490824 | 12.22° C | 89% | 1013.3 hPa | 0 mm | - | 0 W/m² | - |
| 1777489743 | 12.22° C | 88% | 1012.7 hPa | 0 mm | - | 0 W/m² | - |
| 1777487223 | 13.33° C | 81% | 1012.1 hPa | 0 mm | - | 22 W/m² | - |
| 1777481643 | 18.33° C | 74% | 1010.3 hPa | 0 mm | - | 63 W/m² | - |
| 1777480564 | 18.33° C | 70% | 1010.7 hPa | 0 mm | - | 311 W/m² | - |
| 1777478403 | 18.33° C | 74% | 1010.4 hPa | 0 mm | - | 336 W/m² | - |
* Rain latest hour (hover to see other rain measurements)
** Current wind speed in m/s (hover to see current wind gust speed)